| time (UTC) | temp F | wind direction | speed MPH | gust MPH | rain 1hr in | rain 24hr in | rain mn in | humidity % | barometer mb |
| 20260510141748 | 76 | 69 | 4.0 | 0.0 | 0.00 | 0.00 | 0.00 | 1004.0 | |
| 20260510140611 | 75 | 24 | 0.0 | 0.0 | 0.00 | 0.00 | 0.00 | 1004.0 | |
| 20260510135434 | 73 | 111 | 5.0 | 0.0 | 0.00 | 0.00 | 0.00 | 1003.8 | |
| 20260510134257 | 73 | 84 | 0.0 | 0.0 | 0.00 | 0.00 | 0.00 | 1003.7 | |
| 20260510133121 | 71 | 94 | 0.0 | 0.0 | 0.00 | 0.00 | 0.00 | 1003.6 | |
| 20260510131943 | 71 | 39 | 3.0 | 0.0 | 0.00 | 0.00 | 0.00 | 1003.6 | |
| 20260510130806 | 71 | 42 | 0.0 | 0.0 | 0.00 | 0.00 | 0.00 | 1003.4 | |
| 20260510125629 | 70 | 35 | 5.0 | 0.0 | 0.00 | 0.00 | 0.00 | 1003.5 | |
| 20260510124452 | 70 | 41 | 4.0 | 0.0 | 0.00 | 0.00 | 0.00 | 1003.4 | |
| 20260510123316 | 70 | 32 | 5.0 | 0.0 | 0.00 | 0.00 | 0.00 | 1003.4 | |
| 20260510122138 | 70 | 8 | 5.0 | 0.0 | 0.00 | 0.00 | 0.00 | 1003.3 | |
| 20260510115824 | 70 | 52 | 4.0 | 0.0 | 0.00 | 0.00 | 0.00 | 1002.8 | |
| 20260510114648 | 69 | 284 | 0.0 | 0.0 | 0.00 | 0.00 | 0.00 | 1002.9 | |
| 20260510112335 | 68 | 284 | 0.0 | 0.0 | 0.00 | 0.00 | 0.02 | 1003.1 | |
| 20260510111157 | 67 | 284 | 0.0 | 0.0 | 0.00 | 0.00 | 0.00 | 1003.3 | |
| 20260510110020 | 67 | 284 | 0.0 | 0.0 | 0.00 | 0.00 | 0.00 | 1003.2 | |
| 20260510102529 | 68 | 322 | 3.0 | 0.0 | 0.00 | 0.00 | 0.00 | 1002.9 | |
| 20260510101352 | 68 | 323 | 4.0 | 0.0 | 0.00 | 0.00 | 0.00 | 1003.1 | |
| 20260510100215 | 68 | 298 | 4.0 | 0.0 | 0.00 | 0.00 | 0.00 | 1003.0 | |
| 20260510095038 | 69 | 323 | 5.0 | 0.0 | 0.00 | 0.00 | 0.00 | 1002.9 | |
| 20260510093901 | 69 | 11 | 0.0 | 0.0 | 0.00 | 0.00 | 0.00 | 1002.8 | |
| 20260510092724 | 69 | 46 | 3.0 | 0.0 | 0.00 | 0.00 | 0.00 | 1002.7 | |
| 20260510091547 | 69 | 20 | 5.0 | 0.0 | 0.00 | 0.00 | 0.00 | 1002.6 | |
| 20260510090411 | 69 | 14 | 3.0 | 0.0 | 0.00 | 0.00 | 0.00 | 1002.5 | |
| 20260510085233 | 69 | 37 | 3.0 | 0.0 | 0.00 | 0.00 | 0.00 | 1002.5 | |
| 20260510084056 | 69 | 46 | 3.0 | 0.0 | 0.00 | 0.00 | 0.00 | 1002.3 | |
| 20260510082919 | 70 | 46 | 6.0 | 0.0 | 0.00 | 0.00 | 0.00 | 1002.3 | |
| 20260510081742 | 70 | 58 | 5.0 | 0.0 | 0.00 | 0.00 | 0.00 | 1002.4 | |
| 20260510080605 | 70 | 38 | 5.0 | 0.0 | 0.00 | 0.00 | 0.00 | 1002.4 | |
| 20260510075428 | 71 | 46 | 4.0 | 0.0 | 0.00 | 0.00 | 0.00 | 1002.5 | |
| 20260510074251 | 71 | 27 | 7.0 | 0.0 | 0.00 | 0.00 | 0.00 | 1002.5 | |
| 20260510073114 | 71 | 59 | 5.0 | 0.0 | 0.00 | 0.00 | 0.00 | 1002.5 | |
| 20260510071937 | 71 | 63 | 3.0 | 0.0 | 0.00 | 0.00 | 0.00 | 1002.5 | |
| 20260510070802 | 71 | 49 | 6.0 | 0.0 | 0.00 | 0.00 | 0.00 | 1002.6 | |
| 20260510070800 | 71 | 49 | 6.0 | 0.0 | 0.00 | 0.00 | 0.00 | 1002.6 | |
| 20260510065623 | 72 | 34 | 5.0 | 0.0 | 0.00 | 0.00 | 0.00 | 1002.5 | |
| 20260510064448 | 72 | 53 | 86.0 | 0.0 | 0.00 | 0.00 | 0.00 | 1002.4 | |
| 20260510064446 | 72 | 53 | 6.0 | 0.0 | 0.00 | 0.00 | 0.00 | 1002.4 | |
| 20260510063309 | 73 | 68 | 3.0 | 0.0 | 0.00 | 0.00 | 0.00 | 1002.4 | |
| 20260510062132 | 73 | 76 | 4.0 | 0.0 | 0.00 | 0.00 | 0.00 | 1002.6 | |
| 20260510060956 | 73 | 51 | 6.0 | 0.0 | 0.00 | 0.00 | 0.00 | 1002.7 | |
| 20260510055819 | 73 | 62 | 3.0 | 0.0 | 0.00 | 0.00 | 0.00 | 1002.6 | |
| 20260510054641 | 74 | 39 | 5.0 | 0.0 | 0.00 | 0.00 | 0.00 | 1002.7 | |
| 20260510053505 | 74 | 27 | 5.0 | 0.0 | 0.00 | 0.00 | 0.00 | 1002.8 | |
| 20260510052327 | 74 | 55 | 5.0 | 0.0 | 0.00 | 0.00 | 0.00 | 1002.5 | |
| 20260510051150 | 75 | 41 | 5.0 | 0.0 | 0.00 | 0.00 | 0.00 | 1002.5 | |
| 20260510050013 | 75 | 58 | 3.0 | 0.0 | 0.00 | 0.00 | 0.00 | 1002.4 | |
| 20260510044836 | 76 | 49 | 5.0 | 0.0 | 0.00 | 0.00 | 0.00 | 1002.2 | |
| 20260510043700 | 77 | 60 | 3.0 | 0.0 | 0.00 | 0.00 | 0.00 | 1002.3 | |
| 20260510042522 | 77 | 34 | 4.0 | 0.0 | 0.00 | 0.00 | 0.00 | 1002.3 | |
| 20260510041345 | 78 | 55 | 5.0 | 0.0 | 0.00 | 0.00 | 0.00 | 1002.2 | |
| 20260510040208 | 79 | 58 | 5.0 | 0.0 | 0.00 | 0.00 | 0.00 | 1002.2 | |
| 20260510035031 | 79 | 44 | 5.0 | 0.0 | 0.00 | 0.00 | 0.00 | 1002.0 | |
| 20260510033855 | 80 | 23 | 5.0 | 0.0 | 0.00 | 0.00 | 0.00 | 1001.9 | |
| 20260510032719 | 80 | 37 | 5.0 | 0.0 | 0.00 | 0.00 | 0.00 | 1001.8 | |
| 20260510031541 | 81 | 359 | 10.0 | 0.0 | 0.00 | 0.00 | 0.00 | 1001.7 | |
| 20260510030405 | 82 | 30 | 10.0 | 0.0 | 0.00 | 0.00 | 0.00 | 1001.6 | |
| 20260510025229 | 82 | 45 | 6.0 | 0.0 | 0.00 | 0.00 | 0.00 | 1001.4 | |
| 20260510024050 | 83 | 31 | 8.0 | 0.0 | 0.00 | 0.00 | 0.00 | 1001.1 | |
| 20260510022912 | 83 | 357 | 9.0 | 0.0 | 0.00 | 0.00 | 0.00 | 1000.9 | |
| 20260510021735 | 83 | 330 | 0.0 | 0.0 | 0.00 | 0.00 | 0.00 | 1000.8 | |
| 20260510020558 | 84 | 304 | 3.0 | 0.0 | 0.00 | 0.00 | 0.00 | 1000.7 | |
| 20260510015421 | 84 | 311 | 0.0 | 0.0 | 0.00 | 0.00 | 0.00 | 1000.4 | |
| 20260510014245 | 85 | 290 | 6.0 | 0.0 | 0.00 | 0.00 | 0.00 | 1000.4 | |
| 20260510013108 | 85 | 342 | 0.0 | 0.0 | 0.00 | 0.00 | 0.00 | 1000.2 | |
| 20260510011931 | 85 | 342 | 0.0 | 0.0 | 0.00 | 0.00 | 0.00 | 1000.0 | |
| 20260510010754 | 86 | 342 | 0.0 | 0.0 | 0.00 | 0.00 | 0.00 | 999.8 | |
| 20260510005617 | 87 | 342 | 0.0 | 0.0 | 0.00 | 0.00 | 0.00 | 999.6 | |
| 20260510004440 | 88 | 342 | 0.0 | 0.0 | 0.00 | 0.00 | 0.00 | 999.3 | |
| 20260510003304 | 89 | 342 | 0.0 | 0.0 | 0.00 | 0.00 | 0.00 | 999.3 | |
| 20260510002126 | 89 | 356 | 0.0 | 0.0 | 0.00 | 0.00 | 0.00 | 999.3 | |
| 20260510000950 | 90 | 37 | 3.0 | 0.0 | 0.00 | 0.00 | 0.00 | 999.4 | |
| 20260509235813 | 90 | 280 | 0.0 | 0.0 | 0.00 | 0.00 | 0.00 | 999.7 | |
| 20260509234635 | 90 | 280 | 0.0 | 0.0 | 0.00 | 0.00 | 0.00 | 999.8 | |
| 20260509233458 | 89 | 340 | 5.0 | 0.0 | 0.00 | 0.00 | 0.00 | 999.8 | |
| 20260509232321 | 90 | 11 | 4.0 | 0.0 | 0.00 | 0.00 | 0.00 | 999.9 | |
| 20260509231144 | 92 | 243 | 0.0 | 0.0 | 0.00 | 0.00 | 0.00 | 999.8 | |
| 20260509230007 | 93 | 243 | 0.0 | 0.0 | 0.00 | 0.00 | 0.00 | 999.8 | |
| 20260509224830 | 94 | 179 | 0.0 | 0.0 | 0.00 | 0.00 | 0.00 | 999.8 | |
| 20260509223653 | 95 | 283 | 0.0 | 0.0 | 0.00 | 0.00 | 0.00 | 999.8 | |
| 20260509222516 | 96 | 214 | 0.0 | 0.0 | 0.00 | 0.00 | 0.00 | 999.7 | |
| 20260509221339 | 96 | 300 | 0.0 | 0.0 | 0.00 | 0.00 | 0.00 | 999.8 | |
| 20260509220202 | 95 | 277 | 0.0 | 0.0 | 0.00 | 0.00 | 0.00 | 999.7 | |
| 20260509215025 | 96 | 127 | 0.0 | 0.0 | 0.00 | 0.00 | 0.00 | 999.7 | |
| 20260509213848 | 96 | 70 | 3.0 | 0.0 | 0.00 | 0.00 | 0.00 | 999.8 | |
| 20260509212711 | 96 | 205 | 0.0 | 0.0 | 0.00 | 0.00 | 0.00 | 999.9 | |
| 20260509211534 | 93 | 212 | 0.0 | 0.0 | 0.00 | 0.00 | 0.00 | 999.9 | |
| 20260509210357 | 93 | 288 | 0.0 | 0.0 | 0.00 | 0.00 | 0.00 | 1000.2 | |
| 20260509205221 | 94 | 124 | 5.0 | 0.0 | 0.00 | 0.00 | 0.00 | 1000.3 | |
| 20260509204043 | 92 | 187 | 2.0 | 0.0 | 0.00 | 0.00 | 0.00 | 1000.4 | |
| 20260509202906 | 92 | 173 | 3.0 | 0.0 | 0.00 | 0.00 | 0.00 | 1000.7 | |
| 20260509201729 | 94 | 173 | 0.0 | 0.0 | 0.00 | 0.00 | 0.00 | 1000.9 | |
| 20260509200552 | 94 | 208 | 3.0 | 0.0 | 0.00 | 0.00 | 0.00 | 1001.0 | |
| 20260509195415 | 93 | 107 | 6.0 | 0.0 | 0.00 | 0.00 | 0.00 | 1001.2 | |
| 20260509194238 | 91 | 62 | 2.0 | 0.0 | 0.00 | 0.00 | 0.00 | 1001.2 | |
| 20260509193102 | 91 | 245 | 0.0 | 0.0 | 0.00 | 0.00 | 0.00 | 1001.4 | |
| 20260509191924 | 90 | 83 | 3.0 | 0.0 | 0.00 | 0.00 | 0.00 | 1001.6 | |
| 20260509190747 | 91 | 87 | 5.0 | 0.0 | 0.00 | 0.00 | 0.00 | 1001.8 | |
| 20260509185611 | 90 | 162 | 7.0 | 0.0 | 0.00 | 0.00 | 0.00 | 1001.8 | |
| 20260509184433 | 90 | 70 | 0.0 | 0.0 | 0.00 | 0.00 | 0.00 | 1001.9 | |
| 20260509183257 | 90 | 131 | 6.0 | 0.0 | 0.00 | 0.00 | 0.00 | 1002.1 | |
| 20260509182120 | 90 | 31 | 3.0 | 0.0 | 0.00 | 0.00 | 0.00 | 1002.2 | |
| 20260509180942 | 91 | 113 | 5.0 | 0.0 | 0.00 | 0.00 | 0.00 | 1002.5 | |
| 20260509175805 | 91 | 162 | 4.0 | 0.0 | 0.00 | 0.00 | 0.00 | 1002.8 | |
| 20260509174628 | 90 | 105 | 0.0 | 0.0 | 0.00 | 0.00 | 0.00 | 1002.8 | |
| 20260509173451 | 90 | 77 | 3.0 | 0.0 | 0.00 | 0.00 | 0.00 | 1002.7 | |
| 20260509172314 | 89 | 194 | 6.0 | 0.0 | 0.00 | 0.00 | 0.00 | 1002.8 | |
| 20260509171137 | 89 | 134 | 5.0 | 0.0 | 0.00 | 0.00 | 0.00 | 1002.7 | |
| 20260509170001 | 90 | 129 | 4.0 | 0.0 | 0.00 | 0.00 | 0.00 | 1002.8 | |
| 20260509164826 | 88 | 105 | 4.0 | 0.0 | 0.00 | 0.00 | 0.00 | 1003.0 | |
| 20260509163648 | 88 | 115 | 7.0 | 0.0 | 0.00 | 0.00 | 0.00 | 1002.9 | |
| 20260509162509 | 88 | 63 | 0.0 | 0.0 | 0.00 | 0.00 | 0.00 | 1003.0 | |
| 20260509161332 | 87 | 121 | 7.0 | 0.0 | 0.00 | 0.00 | 0.00 | 1003.1 | |
| 20260509160155 | 86 | 124 | 10.0 | 0.0 | 0.00 | 0.00 | 0.00 | 1003.1 | |
| 20260509155018 | 84 | 96 | 9.0 | 0.0 | 0.00 | 0.00 | 0.00 | 1002.9 | |
| 20260509153842 | 82 | 66 | 6.0 | 0.0 | 0.00 | 0.00 | 0.00 | 1002.6 | |
| 20260509152705 | 82 | 65 | 9.0 | 0.0 | 0.00 | 0.00 | 0.00 | 1002.8 | |
| 20260509151528 | 82 | 69 | 5.0 | 0.0 | 0.00 | 0.00 | 0.00 | 1003.1 | |
| 20260509150351 | 79 | 30 | 9.0 | 0.0 | 0.00 | 0.00 | 0.00 | 1003.2 | |
| 20260509145215 | 80 | 290 | 5.0 | 0.0 | 0.00 | 0.00 | 0.00 | 1003.5 | |
| 20260509144038 | 81 | 269 | 4.0 | 0.0 | 0.00 | 0.00 | 0.00 | 1003.9 | |
| 20260509142901 | 78 | 316 | 0.0 | 0.0 | 0.00 | 0.00 | 0.00 | 1004.2 |